SCP
-0 -0 -0 -0 -0 -0 -0 -0 -0 -0 -0 -0 -0 -0 -0 -0 -0 -0 -0 -0 -0 -0 -0 -0 -0 -0 0 0 0 0 -0 -0 0 0 0 -0 0 0 -0 -0 -0 -0 0 -0 0 0 0
-0 -0 -0 -0 -0 -0 -0 -0 -0 -0 -0 -0 -0 -0 -0 -0 -0 -0 -0 -0 -0 -0 -0 -0 -0 0 0 0 0 -0 0 -0 -0 -0 -0 -0 -0 0 -0 0 0 0 0 0 0 0 0
0 0 -0 -0 -0 -0 -0 -0 -0 -0 -0 -0 -0 -0 -0 -0 -0 -0 -0 -0 -0 -0 -0 -0 -0 -0 -0 -0 0 -0 0 0 0 -0 0 0 0 0 0 0 0 0 0 0 0 0 0
0 0 0 -0 -0 -0 -0 -0 -0 -0 -0 -0 -0 -0 -0 -0 -0 -0 -0 -0 -0 -0 -0 -0 0 -0 0 -0 -0 -0 -0 0 0 0 0 -0 0 0 0 0 0 0 0 0 0 0 0
0 0 0 0 -0 -0 -0 -0 -0 -0 -0 -0 -0 -0 -0 -0 -0 -0 -0 -0 -0 -0 -0 -0 0 0 0 0 0 0 0 -0 0 0 0 0 0 0 0 0 0 0 0 0 0 0 0
0 0 0 0 0 0 -0 -0 -0 -0 -0 -0 -0 -0 -0 -0 -0 -0 0 0 0 0 0 0 0 0 0 0 0 0 0 0 0 0 0 0 0 0 0 0 0 0 0 0 0 0 0
0 0 0 0 0 0 0 0 -0 -0 -0 -0 -0 -0 -0 -0 -0 -0 0 0 0 0 0 0 0 0 0 0 0 0 0 0 0 0 0 0 0 0 0 0 0 0 0 0 0 0 0
0 0 0 0 0 0 0 0 0 0 -0 -0 -0 -0 -0 -0 0 -0 0 0 0 0 0 0 0 0 0 0 0 0 0 0 0 0 0 0 0 0 0 0 0 0 0 0 0 0 0
0 0 0 0 0 0 0 0 0 0 0 0 -0 -0 -0 -0 0 0 0 0 0 0 0 0 0 0 0 0 0 0 0 0 0 0 0 0 0 0 0 0 0 0 0 0 0 0 0
0 0 0 0 0 0 0 0 0 0 0 0 0 0 0 0 0 0 0 0 0 0 0 0 0 0 0 0 0 0 0 0 0 0 0 0 0 0 0 0 0 0 0 0 0 0 0
0 0 0 0 0 0 0 0 0 0 0 0 0 0 0 0 0 0 0 0 0 0 0 0 0 0 0 0 0 0 0 0 0 0 0 0 0 0 0 0 0 0 0 0 0 0 0
0 0 0 0 0 0 0 0 0 0 0 0 0 0 0 -0 0 0 0 0 0 0 0 0 0 0 0 0 0 0 0 0 0 0 0 0 0 0 0 0 0 0 0 0 0 0 0
0 0 0 0 0 0 0 0 0 0 0 0 0 0 0 -0 0 0 0 0 0 0 0 0 0 0 0 0 0 0 0 0 0 0 0 0 0 0 0 0 0 0 0 0 0 0 0
0 0 0 0 0 0 0 0 0 0 0 0 0 0 0 0 0 0 0 0 0 0 0 0 0 0 0 0 0 0 0 0 0 0 0 0 0 0 0 0 0 0 0 0 0 0 0
0 0 0 0 0 0 0 0 0 0 0 0 0 0 0 0 0 0 0 0 0 0 0 0 0 0 0 0 0 0 0 0 0 0 0 0 0 0 0 0 0 0 0 0 0 0 0
0 0 0 0 0 0 0 0 0 0 0 0 0 0 0 0 0 0 0 0 0 0 0 0 0 0 0 0 0 0 0 0 0 0 0 0 0 0 0 0 0 0 0 0 0 0 0
0 0 0 0 0 0 0 0 0 0 0 0 0 0 0 0 0 0 0 0 0 0 0 0 0 0 0 0 0 0 0 0 0 0 0 0 0 0 0 0 0 0 0 0 0 0 0
0 0 0 0 0 0 0 0 0 0 0 0 0 0 0 0 0 0 0 0 0 0 0 0 0 0 0 0 0 0 0 0 0 0 0 0 0 0 0 0 0 0 0 0 0 0 0
0 0 0 0 0 0 0 0 0 0 0 0 0 0 0 0 0 0 0 0 0 0 0 0 0 0 0 0 0 0 0 0 0 0 0 0 0 0 0 0 0 0 0 0 0 0 0
0 0 0 0 0 0 0 0 0 0 0 0 0 0 0 0 0 0 0 0 0 0 0 0 0 0 0 0 0 0 0 0 0 0 0 0 0 0 0 0 0 0 0 0 0 0 0
0 0 0 0 0 0 0 0 0 0 0 0 0 0 0 0 0 0 0 0 0 0 0 0 0 0 0 0 0 0 0 0 0 0 0 0 0 0 0 0 0 0 0 0 0 0 0
0 0 0 0 0 0 0 0 0 0 0 0 0 0 0 0 0 0 0 0 0 0 0 0 0 0 0 0 0 0 0 0 0 0 0 0 0 0 0 0 0 0 0 0 0 0 0
0 0 0 0 0 0 0 0 0 0 0 0 0 0 0 0 0 0 0 0 0 0 0 0 0 0 0 0 0 0 0 0 0 0 0 0 0 0 0 0 0 0 0 0 0 0 0
0 0 0 0 0 0 0 0 0 0 0 0 0 0 0 0 0 0 0 0 0 0 0 0 0 0 0 0 0 0 0 0 0 0 0 0 0 0 0 0 0 0 0 0 0 0 0
0 0 0 0 0 0 0 0 0 0 0 0 0 0 0 0 0 0 0 0 0 0 0 0 0 0 0 0 0 0 0 0 0 0 0 0 0 0 0 0 0 0 0 0 0 0 0
0 0 0 0 0 0 0 0 0 0 0 0 0 0 0 0 0 0 0 0 0 0 0 0 0 0 0 0 0 0 0 0 0 0 0 0 0 0 0 0 0 0 0 0 0 0 0
0 0 0 0 0 -0 0 0 0 0 0 0 0 0 0 0 0 0 0 0 0 0 0 0 0 0 0 0 0 0 0 0 0 0 0 0 0 0 0 0 0 0 0 0 0 0 0
0 0 0 0 0 0 0 0 0 0 0 0 0 0 0 0 0 0 0 0 0 0 0 0 0 0 0 0 0 0 0 0 0 0 0 0 0 0 0 0 0 0 0 0 0 0 0
0 0 0 0 0 0 0 0 0 0 0 0 0 0 0 0 0 0 0 0 0 0 0 0 0 0 0 0 0 0 0 0 0 0 0 0 0 0 0 0 0 0 0 0 0 0 0
Wind_Speed_500mb
24 27 31 34 37 41 45 49 50 45 44 32 27 15 12 3 5 6 6 9 7 8 8 7 10 13 13 11 7 11 12 11 12 9 9 11 5 3 9 8 20 17 10 18 12 10 11
20 24 28 31 34 37 40 44 47 45 44 39 28 20 15 6 3 8 8 4 9 17 22 22 13 7 6 4 9 10 12 14 14 16 9 14 10 13 16 9 11 14 19 15 5 7 5
16 20 24 27 30 33 36 39 44 47 43 42 31 23 14 8 3 5 9 17 22 13 6 10 11 15 15 5 10 8 11 12 14 14 13 15 16 4 12 10 14 24 12 12 4 6 4
15 17 21 24 27 29 32 34 38 43 44 42 37 23 17 7 2 6 15 17 2 3 4 4 12 12 6 13 9 8 7 12 13 16 15 17 22 13 9 17 10 8 3 9 7 9 5
18 19 20 22 24 27 28 30 33 37 43 41 40 28 16 11 2 5 12 7 2 3 5 2 7 8 5 11 13 10 9 6 10 13 13 11 16 9 9 7 5 8 2 8 7 6 4
21 21 22 23 23 24 27 28 29 31 36 39 40 33 17 11 1 4 8 7 6 4 3 2 6 7 4 4 13 11 7 4 3 4 9 6 4 6 12 8 1 9 8 5 1 4 5
24 23 24 26 27 27 26 28 29 30 32 36 36 36 24 11 2 11 15 4 4 3 5 8 2 8 5 3 18 18 7 10 8 4 2 8 14 11 12 11 6 8 8 12 13 6 8
25 26 25 26 28 28 28 28 29 29 30 32 35 36 28 6 4 14 9 1 6 10 10 12 13 6 9 13 3 18 7 4 4 4 2 6 9 8 7 5 4 6 10 11 2 4 9
27 29 29 29 27 28 30 29 29 30 29 28 32 30 30 10 7 15 24 16 4 9 2 1 5 5 5 12 10 20 9 7 9 13 12 11 7 3 5 8 14 10 5 6 9 14 12
31 31 30 31 32 30 30 29 30 30 29 27 27 29 30 19 6 6 9 12 18 4 3 5 5 6 9 4 5 22 9 5 5 7 10 10 4 1 1 5 9 4 7 9 13 11 4
30 31 34 34 34 34 32 32 28 29 30 27 26 25 24 21 11 8 5 18 8 5 6 4 4 3 12 6 3 15 20 10 10 5 3 2 4 2 2 4 6 4 8 7 6 6 7
34 33 33 37 36 37 35 34 32 28 28 29 25 23 17 19 9 4 16 11 4 4 11 5 0 0 6 8 5 5 8 11 7 1 11 8 4 8 8 5 3 12 9 12 4 4 2
40 37 36 36 37 36 36 35 35 30 27 27 25 21 17 17 7 6 13 6 2 6 2 8 3 3 7 6 6 8 6 9 5 8 3 7 7 5 6 5 5 6 5 6 8 4 8
46 43 40 40 38 36 36 35 33 36 28 26 25 19 14 11 4 10 13 2 8 5 6 3 4 4 1 4 3 3 6 6 14 9 5 2 4 4 5 7 2 5 3 7 8 5 7
56 49 46 43 41 38 36 34 32 33 32 26 26 20 17 11 5 14 7 4 7 2 6 13 5 8 6 5 1 7 10 6 7 13 5 6 4 5 8 3 3 2 2 2 5 5 4
63 56 54 47 44 40 36 34 31 29 30 26 24 20 24 15 9 15 2 8 4 2 2 1 7 4 8 9 8 6 8 3 7 5 10 3 3 1 6 1 1 3 2 2 2 5 10
68 67 59 52 45 43 37 32 30 28 27 23 17 8 12 12 12 9 7 7 5 9 3 6 4 7 6 6 3 5 8 2 2 4 4 4 4 4 8 8 5 2 4 6 2 3 6
63 71 64 57 50 45 40 33 28 25 24 19 8 7 11 14 6 8 4 8 7 10 7 5 4 6 7 7 7 5 8 6 10 5 3 3 4 6 2 8 5 1 6 4 5 4 6
46 48 69 64 57 50 44 39 30 23 18 15 9 13 14 20 7 8 5 5 5 10 9 10 6 1 3 8 8 7 8 7 12 7 5 9 4 6 2 4 2 6 9 8 3 5 10
47 49 50 61 57 55 50 42 34 25 18 15 10 5 11 20 18 5 10 10 10 8 7 5 7 7 8 7 1 11 9 8 12 2 3 5 5 9 10 10 6 9 11 18 17 8 8
45 46 43 57 64 58 55 48 38 30 23 13 10 9 5 6 14 13 21 18 12 12 8 17 5 12 14 9 10 10 10 9 9 10 6 2 9 10 17 19 16 22 28 24 25 30 20
51 42 44 44 50 59 60 52 44 37 31 23 9 9 6 10 7 12 13 16 20 12 17 10 9 20 13 9 13 14 15 13 10 12 11 9 4 6 9 20 17 26 37 31 32 35 38
56 48 44 48 49 50 56 59 52 46 41 23 23 34 10 6 7 9 11 12 20 25 18 3 22 12 14 4 17 17 21 18 17 15 14 11 8 5 8 4 8 19 19 26 10 13 12
58 56 55 48 54 47 44 59 59 56 54 47 31 18 11 8 11 11 3 10 16 25 12 13 15 14 15 17 19 14 14 11 8 9 6 12 10 4 6 4 6 9 6 5 9 17 19
58 57 53 56 46 55 47 55 59 65 61 57 55 36 10 8 21 17 14 9 19 19 10 15 8 12 30 15 6 6 1 2 6 12 5 3 7 5 6 8 17 9 3 8 10 8 6
57 56 55 57 53 51 55 45 65 67 69 66 63 53 33 11 14 31 23 31 10 10 6 9 22 28 18 6 6 10 10 10 8 6 3 2 5 4 5 7 10 4 9 9 9 9 7
58 59 58 58 52 50 59 50 50 74 79 76 69 66 52 26 39 30 14 23 21 20 8 16 18 13 16 6 5 8 9 1 9 12 11 8 5 15 15 11 15 9 25 14 4 7 11
58 58 57 56 47 44 51 63 49 62 80 85 80 78 67 34 41 31 31 20 27 32 10 24 14 4 3 8 8 8 9 13 6 10 14 17 16 9 7 9 19 36 14 12 10 15 14
59 56 55 52 49 40 44 52 60 44 64 90 84 74 70 55 22 50 51 42 47 47 32 50 9 18 25 7 5 5 5 5 6 7 8 8 14 12 19 11 12 43 15 16 8 13 10
Wind_Direction_500mb
37 34 33 30 30 30 29 29 28 27 24 22 21 31 6 29 121 135 124 125 109 95 84 54 82 101 92 63 21 8 19 39 58 72 103 114 128 105 109 99 84 80 98 85 92 70 53
28 26 25 24 23 23 24 25 24 24 23 23 19 23 25 45 79 137 138 130 108 111 93 78 67 90 65 92 1 22 35 49 59 66 106 126 112 89 83 56 35 117 106 105 94 77 80
13 13 17 16 18 18 17 19 20 19 20 20 20 16 24 25 44 147 142 138 125 120 35 57 128 70 54 75 37 42 55 65 63 74 80 105 117 44 124 108 113 138 115 150 134 22 108
350 356 1 5 7 12 13 13 15 15 17 16 15 15 11 14 63 162 145 140 63 36 122 24 88 83 79 32 44 25 40 62 74 74 84 84 100 86 57 117 138 204 229 165 106 338 153
339 343 348 350 357 1 6 7 9 12 12 12 12 10 7 15 10 176 185 213 251 77 66 39 118 112 79 27 7 17 41 91 88 74 68 69 81 108 128 229 186 193 278 60 138 78 292
338 340 342 345 346 352 356 360 2 6 10 11 9 5 358 356 24 189 192 151 95 247 199 46 89 126 58 322 15 16 35 66 97 67 42 9 214 112 28 356 96 4 347 6 60 77 8
326 333 337 341 344 345 349 351 355 358 3 6 7 8 360 351 339 155 148 165 6 32 79 87 86 92 55 58 54 12 72 58 59 26 73 27 57 67 37 19 355 332 298 287 25 91 1
315 320 325 331 336 339 342 345 346 351 354 359 6 5 1 342 215 186 210 343 336 159 85 70 69 43 47 70 84 16 78 6 7 97 219 69 89 52 328 312 302 288 300 25 352 172 342
303 308 313 317 324 330 332 336 340 342 347 352 356 359 3 340 319 235 246 262 226 153 281 109 58 42 345 74 47 4 52 64 26 51 43 80 84 127 316 17 352 84 56 359 283 314 254
296 300 304 308 313 318 321 328 332 335 338 342 349 357 360 350 321 300 246 201 167 217 211 136 113 6 354 84 59 30 47 85 57 94 60 80 134 302 257 84 347 265 36 317 300 2 297
288 294 299 302 306 310 314 317 324 328 329 334 338 351 353 356 327 277 202 156 164 153 349 22 74 57 49 38 13 12 38 60 49 93 242 129 119 354 240 41 337 8 342 294 314 278 343
288 290 292 297 301 305 308 310 312 319 322 324 329 338 347 351 343 287 165 165 178 73 250 117 348 159 186 48 54 11 52 62 116 231 51 79 58 14 17 326 276 313 280 213 229 243 7
285 286 289 292 295 299 302 304 307 308 314 317 320 326 330 352 349 166 181 163 79 197 133 135 77 352 71 43 82 29 67 31 53 59 149 156 120 99 0 291 214 280 290 326 342 0 240
279 282 284 287 288 291 295 299 302 301 304 308 309 309 308 324 337 174 170 342 230 277 104 131 166 181 48 345 103 167 182 139 52 342 87 135 299 39 8 45 317 322 345 146 264 265 283
274 277 280 281 285 288 293 296 298 300 300 303 304 299 282 265 263 195 167 209 253 138 104 154 152 214 137 157 353 194 43 79 44 8 65 49 132 118 57 5 41 28 241 354 283 326 59
267 273 273 277 280 284 287 293 295 296 297 303 306 300 273 245 228 185 140 247 195 75 100 223 214 263 168 128 199 209 157 302 125 22 304 87 318 27 140 241 99 304 333 319 278 306 286
267 264 268 270 273 276 279 286 292 294 294 301 300 286 238 218 191 178 211 190 149 154 173 270 145 143 51 134 330 126 84 223 204 136 349 352 121 172 138 191 140 210 202 232 311 230 230
272 263 260 264 265 267 272 279 284 288 294 295 263 243 215 196 173 238 199 148 143 156 169 227 318 38 142 171 146 125 141 70 156 194 109 117 82 261 33 118 68 334 282 315 151 292 258
297 275 263 255 260 260 261 268 273 277 287 290 255 261 226 196 210 195 155 114 219 149 190 193 149 9 286 159 133 124 103 154 173 215 163 179 203 305 155 29 343 218 180 243 350 71 217
295 294 264 262 252 255 254 255 258 259 263 272 280 261 210 205 246 245 160 181 170 205 163 213 114 130 156 154 211 152 145 182 180 138 121 42 282 215 214 266 347 239 215 201 207 210 223
282 298 288 258 251 247 248 248 248 245 243 240 231 263 221 204 228 226 172 164 146 173 225 191 178 222 189 147 150 185 141 133 165 176 135 162 224 243 264 273 275 270 263 249 240 238 234
267 285 300 288 244 239 241 240 236 239 236 227 250 256 290 289 272 217 181 204 174 147 157 205 234 190 211 183 193 179 162 167 175 157 159 181 213 47 276 261 270 271 259 254 249 255 255
273 266 288 296 289 237 229 235 232 229 226 219 233 254 259 207 213 206 203 192 192 146 203 149 192 139 201 214 92 82 82 81 134 148 178 164 159 151 256 68 317 275 252 215 204 230 225
278 272 276 286 294 282 239 226 227 227 229 225 232 227 227 253 203 210 255 178 182 181 148 168 173 173 155 141 111 94 84 82 124 83 132 161 144 177 278 315 256 251 163 110 211 258 223
275 276 263 270 287 286 276 230 228 224 228 226 228 224 231 264 204 230 206 176 153 147 123 141 128 153 142 120 101 122 318 158 99 40 326 343 144 224 250 217 282 263 208 171 178 276 251
270 276 278 260 276 280 282 257 232 231 224 228 231 229 224 271 230 219 187 187 164 164 111 106 136 146 147 125 126 191 219 213 203 131 50 93 31 206 169 243 265 177 159 128 105 270 36
267 271 278 264 261 276 271 279 246 234 223 223 227 227 222 240 256 216 199 191 185 167 127 134 159 156 167 138 152 185 222 133 192 198 169 145 174 214 233 260 278 154 156 144 138 229 126
264 269 271 272 268 272 280 269 276 237 234 217 226 228 217 231 244 220 214 194 184 180 152 140 115 165 151 170 170 208 207 209 193 171 178 167 167 199 192 228 267 147 133 187 135 122 153
264 265 267 275 262 276 270 279 264 275 239 217 221 226 223 220 236 230 232 219 209 200 183 170 180 157 169 136 185 162 181 158 206 232 179 204 195 183 193 217 135 172 121 149 136 161 179
Wind_Speed_850mb
24 27 31 34 37 41 45 49 50 45 44 32 27 15 12 3 5 6 6 9 7 8 8 7 10 13 13 11 7 11 12 11 12 9 9 11 5 3 9 8 20 17 10 18 12 10 11
20 24 28 31 34 37 40 44 47 45 44 39 28 20 15 6 3 8 8 4 9 17 22 22 13 7 6 4 9 10 12 14 14 16 9 14 10 13 16 9 11 14 19 15 5 7 5
16 20 24 27 30 33 36 39 44 47 43 42 31 23 14 8 3 5 9 17 22 13 6 10 11 15 15 5 10 8 11 12 14 14 13 15 16 4 12 10 14 24 12 12 4 6 4
15 17 21 24 27 29 32 34 38 43 44 42 37 23 17 7 2 6 15 17 2 3 4 4 12 12 6 13 9 8 7 12 13 16 15 17 22 13 9 17 10 8 3 9 7 9 5
18 19 20 22 24 27 28 30 33 37 43 41 40 28 16 11 2 5 12 7 2 3 5 2 7 8 5 11 13 10 9 6 10 13 13 11 16 9 9 7 5 8 2 8 7 6 4
21 21 22 23 23 24 27 28 29 31 36 39 40 33 17 11 1 4 8 7 6 4 3 2 6 7 4 4 13 11 7 4 3 4 9 6 4 6 12 8 1 9 8 5 1 4 5
24 23 24 26 27 27 26 28 29 30 32 36 36 36 24 11 2 11 15 4 4 3 5 8 2 8 5 3 18 18 7 10 8 4 2 8 14 11 12 11 6 8 8 12 13 6 8
25 26 25 26 28 28 28 28 29 29 30 32 35 36 28 6 4 14 9 1 6 10 10 12 13 6 9 13 3 18 7 4 4 4 2 6 9 8 7 5 4 6 10 11 2 4 9
27 29 29 29 27 28 30 29 29 30 29 28 32 30 30 10 7 15 24 16 4 9 2 1 5 5 5 12 10 20 9 7 9 13 12 11 7 3 5 8 14 10 5 6 9 14 12
31 31 30 31 32 30 30 29 30 30 29 27 27 29 30 19 6 6 9 12 18 4 3 5 5 6 9 4 5 22 9 5 5 7 10 10 4 1 1 5 9 4 7 9 13 11 4
30 31 34 34 34 34 32 32 28 29 30 27 26 25 24 21 11 8 5 18 8 5 6 4 4 3 12 6 3 15 20 10 10 5 3 2 4 2 2 4 6 4 8 7 6 6 7
34 33 33 37 36 37 35 34 32 28 28 29 25 23 17 19 9 4 16 11 4 4 11 5 0 0 6 8 5 5 8 11 7 1 11 8 4 8 8 5 3 12 9 12 4 4 2
40 37 36 36 37 36 36 35 35 30 27 27 25 21 17 17 7 6 13 6 2 6 2 8 3 3 7 6 6 8 6 9 5 8 3 7 7 5 6 5 5 6 5 6 8 4 8
46 43 40 40 38 36 36 35 33 36 28 26 25 19 14 11 4 10 13 2 8 5 6 3 4 4 1 4 3 3 6 6 14 9 5 2 4 4 5 7 2 5 3 7 8 5 7
56 49 46 43 41 38 36 34 32 33 32 26 26 20 17 11 5 14 7 4 7 2 6 13 5 8 6 5 1 7 10 6 7 13 5 6 4 5 8 3 3 2 2 2 5 5 4
63 56 54 47 44 40 36 34 31 29 30 26 24 20 24 15 9 15 2 8 4 2 2 1 7 4 8 9 8 6 8 3 7 5 10 3 3 1 6 1 1 3 2 2 2 5 10
68 67 59 52 45 43 37 32 30 28 27 23 17 8 12 12 12 9 7 7 5 9 3 6 4 7 6 6 3 5 8 2 2 4 4 4 4 4 8 8 5 2 4 6 2 3 6
63 71 64 57 50 45 40 33 28 25 24 19 8 7 11 14 6 8 4 8 7 10 7 5 4 6 7 7 7 5 8 6 10 5 3 3 4 6 2 8 5 1 6 4 5 4 6
46 48 69 64 57 50 44 39 30 23 18 15 9 13 14 20 7 8 5 5 5 10 9 10 6 1 3 8 8 7 8 7 12 7 5 9 4 6 2 4 2 6 9 8 3 5 10
47 49 50 61 57 55 50 42 34 25 18 15 10 5 11 20 18 5 10 10 10 8 7 5 7 7 8 7 1 11 9 8 12 2 3 5 5 9 10 10 6 9 11 18 17 8 8
45 46 43 57 64 58 55 48 38 30 23 13 10 9 5 6 14 13 21 18 12 12 8 17 5 12 14 9 10 10 10 9 9 10 6 2 9 10 17 19 16 22 28 24 25 30 20
51 42 44 44 50 59 60 52 44 37 31 23 9 9 6 10 7 12 13 16 20 12 17 10 9 20 13 9 13 14 15 13 10 12 11 9 4 6 9 20 17 26 37 31 32 35 38
56 48 44 48 49 50 56 59 52 46 41 23 23 34 10 6 7 9 11 12 20 25 18 3 22 12 14 4 17 17 21 18 17 15 14 11 8 5 8 4 8 19 19 26 10 13 12
58 56 55 48 54 47 44 59 59 56 54 47 31 18 11 8 11 11 3 10 16 25 12 13 15 14 15 17 19 14 14 11 8 9 6 12 10 4 6 4 6 9 6 5 9 17 19
58 57 53 56 46 55 47 55 59 65 61 57 55 36 10 8 21 17 14 9 19 19 10 15 8 12 30 15 6 6 1 2 6 12 5 3 7 5 6 8 17 9 3 8 10 8 6
57 56 55 57 53 51 55 45 65 67 69 66 63 53 33 11 14 31 23 31 10 10 6 9 22 28 18 6 6 10 10 10 8 6 3 2 5 4 5 7 10 4 9 9 9 9 7
58 59 58 58 52 50 59 50 50 74 79 76 69 66 52 26 39 30 14 23 21 20 8 16 18 13 16 6 5 8 9 1 9 12 11 8 5 15 15 11 15 9 25 14 4 7 11
58 58 57 56 47 44 51 63 49 62 80 85 80 78 67 34 41 31 31 20 27 32 10 24 14 4 3 8 8 8 9 13 6 10 14 17 16 9 7 9 19 36 14 12 10 15 14
59 56 55 52 49 40 44 52 60 44 64 90 84 74 70 55 22 50 51 42 47 47 32 50 9 18 25 7 5 5 5 5 6 7 8 8 14 12 19 11 12 43 15 16 8 13 10
Wind_Direction_850mb
37 34 33 30 30 30 29 29 28 27 24 22 21 31 6 29 121 135 124 125 109 95 84 54 82 101 92 63 21 8 19 39 58 72 103 114 128 105 109 99 84 80 98 85 92 70 53
28 26 25 24 23 23 24 25 24 24 23 23 19 23 25 45 79 137 138 130 108 111 93 78 67 90 65 92 1 22 35 49 59 66 106 126 112 89 83 56 35 117 106 105 94 77 80
13 13 17 16 18 18 17 19 20 19 20 20 20 16 24 25 44 147 142 138 125 120 35 57 128 70 54 75 37 42 55 65 63 74 80 105 117 44 124 108 113 138 115 150 134 22 108
350 356 1 5 7 12 13 13 15 15 17 16 15 15 11 14 63 162 145 140 63 36 122 24 88 83 79 32 44 25 40 62 74 74 84 84 100 86 57 117 138 204 229 165 106 338 153
339 343 348 350 357 1 6 7 9 12 12 12 12 10 7 15 10 176 185 213 251 77 66 39 118 112 79 27 7 17 41 91 88 74 68 69 81 108 128 229 186 193 278 60 138 78 292
338 340 342 345 346 352 356 360 2 6 10 11 9 5 358 356 24 189 192 151 95 247 199 46 89 126 58 322 15 16 35 66 97 67 42 9 214 112 28 356 96 4 347 6 60 77 8
326 333 337 341 344 345 349 351 355 358 3 6 7 8 360 351 339 155 148 165 6 32 79 87 86 92 55 58 54 12 72 58 59 26 73 27 57 67 37 19 355 332 298 287 25 91 1
315 320 325 331 336 339 342 345 346 351 354 359 6 5 1 342 215 186 210 343 336 159 85 70 69 43 47 70 84 16 78 6 7 97 219 69 89 52 328 312 302 288 300 25 352 172 342
303 308 313 317 324 330 332 336 340 342 347 352 356 359 3 340 319 235 246 262 226 153 281 109 58 42 345 74 47 4 52 64 26 51 43 80 84 127 316 17 352 84 56 359 283 314 254
296 300 304 308 313 318 321 328 332 335 338 342 349 357 360 350 321 300 246 201 167 217 211 136 113 6 354 84 59 30 47 85 57 94 60 80 134 302 257 84 347 265 36 317 300 2 297
288 294 299 302 306 310 314 317 324 328 329 334 338 351 353 356 327 277 202 156 164 153 349 22 74 57 49 38 13 12 38 60 49 93 242 129 119 354 240 41 337 8 342 294 314 278 343
288 290 292 297 301 305 308 310 312 319 322 324 329 338 347 351 343 287 165 165 178 73 250 117 348 159 186 48 54 11 52 62 116 231 51 79 58 14 17 326 276 313 280 213 229 243 7
285 286 289 292 295 299 302 304 307 308 314 317 320 326 330 352 349 166 181 163 79 197 133 135 77 352 71 43 82 29 67 31 53 59 149 156 120 99 0 291 214 280 290 326 342 0 240
279 282 284 287 288 291 295 299 302 301 304 308 309 309 308 324 337 174 170 342 230 277 104 131 166 181 48 345 103 167 182 139 52 342 87 135 299 39 8 45 317 322 345 146 264 265 283
274 277 280 281 285 288 293 296 298 300 300 303 304 299 282 265 263 195 167 209 253 138 104 154 152 214 137 157 353 194 43 79 44 8 65 49 132 118 57 5 41 28 241 354 283 326 59
267 273 273 277 280 284 287 293 295 296 297 303 306 300 273 245 228 185 140 247 195 75 100 223 214 263 168 128 199 209 157 302 125 22 304 87 318 27 140 241 99 304 333 319 278 306 286
267 264 268 270 273 276 279 286 292 294 294 301 300 286 238 218 191 178 211 190 149 154 173 270 145 143 51 134 330 126 84 223 204 136 349 352 121 172 138 191 140 210 202 232 311 230 230
272 263 260 264 265 267 272 279 284 288 294 295 263 243 215 196 173 238 199 148 143 156 169 227 318 38 142 171 146 125 141 70 156 194 109 117 82 261 33 118 68 334 282 315 151 292 258
297 275 263 255 260 260 261 268 273 277 287 290 255 261 226 196 210 195 155 114 219 149 190 193 149 9 286 159 133 124 103 154 173 215 163 179 203 305 155 29 343 218 180 243 350 71 217
295 294 264 262 252 255 254 255 258 259 263 272 280 261 210 205 246 245 160 181 170 205 163 213 114 130 156 154 211 152 145 182 180 138 121 42 282 215 214 266 347 239 215 201 207 210 223
282 298 288 258 251 247 248 248 248 245 243 240 231 263 221 204 228 226 172 164 146 173 225 191 178 222 189 147 150 185 141 133 165 176 135 162 224 243 264 273 275 270 263 249 240 238 234
267 285 300 288 244 239 241 240 236 239 236 227 250 256 290 289 272 217 181 204 174 147 157 205 234 190 211 183 193 179 162 167 175 157 159 181 213 47 276 261 270 271 259 254 249 255 255
273 266 288 296 289 237 229 235 232 229 226 219 233 254 259 207 213 206 203 192 192 146 203 149 192 139 201 214 92 82 82 81 134 148 178 164 159 151 256 68 317 275 252 215 204 230 225
278 272 276 286 294 282 239 226 227 227 229 225 232 227 227 253 203 210 255 178 182 181 148 168 173 173 155 141 111 94 84 82 124 83 132 161 144 177 278 315 256 251 163 110 211 258 223
275 276 263 270 287 286 276 230 228 224 228 226 228 224 231 264 204 230 206 176 153 147 123 141 128 153 142 120 101 122 318 158 99 40 326 343 144 224 250 217 282 263 208 171 178 276 251
270 276 278 260 276 280 282 257 232 231 224 228 231 229 224 271 230 219 187 187 164 164 111 106 136 146 147 125 126 191 219 213 203 131 50 93 31 206 169 243 265 177 159 128 105 270 36
267 271 278 264 261 276 271 279 246 234 223 223 227 227 222 240 256 216 199 191 185 167 127 134 159 156 167 138 152 185 222 133 192 198 169 145 174 214 233 260 278 154 156 144 138 229 126
264 269 271 272 268 272 280 269 276 237 234 217 226 228 217 231 244 220 214 194 184 180 152 140 115 165 151 170 170 208 207 209 193 171 178 167 167 199 192 228 267 147 133 187 135 122 153
264 265 267 275 262 276 270 279 264 275 239 217 221 226 223 220 236 230 232 219 209 200 183 170 180 157 169 136 185 162 181 158 206 232 179 204 195 183 193 217 135 172 121 149 136 161 179